Regional Weather Roundup
Issued by NWS Newport/Morehead, NC

Current Version | Previous Version | Text Only | Print | Product List | Glossary Off
Versions: 1 2 3 4 5 6 7 8 9 10 11 12 13 14 15 16 17 18 19 20 21 22 23 24 25 26 27 28 29 30 31 32 33 34 35 36 37 38 39 40 41 42 43 44 45 46 47 48 49 50
000 ASUS42 KMHX 231022 RWRMHX WEATHER ROUNDUP FOR EASTERN NORTH CAROLINA NATIONAL WEATHER SERVICE NEWPORT/MOREHEAD CITY NC 600 AM EDT THU OCT 23 2014 NOTE: "FAIR" INDICATES FEW OR NO CLOUDS BELOW 12,000 FEET WITH NO SIGNIFICANT WEATHER AND/OR OBSTRUCTIONS TO VISIBILITY NCZ015>017-031-032-045>047-102-103-231100- NORTH COAST CITY SKY/WX TMP DP RH WIND PRES REMARKS EDENTON CLEAR 51 45 79 NW10 29.93S ELIZABETH CITY CLEAR 52 43 71 W14 29.90R KITTY HAWK SUNNY 53 45 73 NW14G24 29.86S MANTEO PTCLDY 54 45 72 NW15G25 29.89R $$ NCZ045>047-081-094-103-104-231100- CENTRAL COAST CITY SKY/WX TMP DP RH WIND PRES REMARKS FRISCO CLOUDY 54 47 77 NW12G24 29.90R SWANQUARTER N/A 52 N/A N/A W13G20 29.91R $$ NCZ095-097-098-100-101-231100- SOUTHERN COAST CITY SKY/WX TMP DP RH WIND PRES REMARKS BEAUFORT CLEAR 52 46 80 NW15 29.96S CEDAR ISLAND N/A 54 N/A N/A W17 29.97S JACKSONVILLE CLEAR 48 43 82 NW9 29.98S PINEY ISLAND SUNNY 55 46 71 W15G23 29.94S WILMINGTON CLEAR 48 42 80 NW7 30.00R $$ NCZ011>013-027>030-043-044-078>080-089-090>093-098-231100- COASTAL PLAIN CITY SKY/WX TMP DP RH WIND PRES REMARKS AHOSKIE CLEAR 45 41 87 CALM 29.96R CLINTON CLEAR 47 43 88 CALM 30.02R ELIZABETHTOWN CLEAR 48 42 79 NW5 30.01S GOLDSBORO CLEAR 47 46 97 W8 29.98R GREENVILLE CLEAR 48 43 81 W3 29.99R HAVELOCK CLEAR 49 44 83 NW9 29.98S KENANSVILLE CLEAR 46 42 84 NW5 30.01R KINSTON CLEAR 46 43 89 W5 30.00R NEW BERN CLEAR 51 44 77 W7 29.98S RICHLANDS CLEAR 46 39 76 CALM 30.00R ROCKY MOUNT CLEAR 48 41 76 W7 29.98R WASHINGTON CLEAR 47 43 85 W3 29.97R WHITEVILLE CLEAR 46 41 84 CALM 30.02S $$ AMZ130-135-150-152-154-156-158-170-250-252-270-ANZ085-086-088-633-658-670-231100- MARINE OBSERVATIONS STATION/POSITION TIME TEMP WIND PRES WAVE SWELL AIR SEA DIR/SP/G HT/PER HT/PER (UTC) (F) (DEG/KT/KT) (MB) (FT/S) (FT/S) CHESAPEAKE LIGHT 1000 56 310/ 31/ 34 1011.1 64 E VA BEACH 1000 60 71 310/ 27/ 33 1007.6 11/ 6 3/11 DUCK 1000 54 67 310/ 19/ 26 1010.7 2 E DUCK 1000 N/A 6/ 9 2/11 10 NE DUCK 1000 68 N/A 8/ 8 2/11 OREGON INLET 1000 55 62 310/ 18/ 25 1011.3 13E OREGON INLT 1000 71 N/A 8/ 8 2/11 HATTERAS CG 1000 56 64 310/ 22/ 27 1013.0 DIAMOND BUOY 1000 58 310/ 23/ 29 1011.7 6/ 6 17 S OCRACOKE NOT AVBL CAPE LOOKOUT 1000 56 310/ 15/ 20 1014.0 BEAUFORT LAB 1000 52 67 320/ 8/ 14 1013.7 30 SE NEW RIVER 1000 60 75 330/ 19/ 21 1013.8 3/ 5 5 SE WRIGHTSVLE 1000 53 72 340/ 19/ 21 N/A 225 S CAPE HAT 0931 71 78 300/ 16/ 19 1013.1 7/ 8 5/ 8 41 SE CHARLESTON 1000 64 78 360/ 12/ 16 1016.2 4/ 6 2/10 $$

USA.gov is the U.S. government's official web portal to all federal, state and local government web resources and services.